TimeEDT,TemperatureF,Dew PointF,Humidity,Sea Level PressureIn,VisibilityMPH,Wind Direction,Wind SpeedMPH,Gust SpeedMPH,PrecipitationIn,Events,Conditions,WindDirDegrees,DateUTC
12:55 AM,51.4,50.9,98,29.82,2.5,NNE,12.7,-,0.02,,Light Drizzle,30,2012-10-29 04:55:00
1:55 AM,51.3,50.7,98,29.80,6.0,NNE,18.4,24.2,0.02,,Overcast,30,2012-10-29 05:55:00
2:55 AM,51.1,50.5,98,29.78,2.5,NNE,13.8,20.7,0.02,,Light Drizzle,30,2012-10-29 06:55:00
3:55 AM,51.8,51.4,99,29.75,2.0,NNE,16.1,23.0,0.02,,Light Drizzle,30,2012-10-29 07:55:00
4:55 AM,52.5,52.3,99,29.73,2.0,NE,18.4,24.2,0.01,,Light Drizzle,40,2012-10-29 08:55:00
5:55 AM,52.9,52.3,98,29.71,2.0,NE,15.0,24.2,0.02,,Light Drizzle,40,2012-10-29 09:55:00
6:17 AM,53.6,51.8,94,29.71,1.5,NE,16.1,29.9,N/A,Rain,Light Rain,50,2012-10-29 10:17:00
6:55 AM,53.2,53.1,99,29.69,1.5,NE,17.3,27.6,0.01,,Light Drizzle,40,2012-10-29 10:55:00
7:25 AM,53.6,53.6,100,29.68,1.0,NE,20.7,28.8,N/A,,Light Drizzle,40,2012-10-29 11:25:00
7:55 AM,54.1,53.8,99,29.69,1.5,NE,19.6,29.9,0.01,,Light Drizzle,50,2012-10-29 11:55:00
8:55 AM,54.5,54.0,98,29.67,1.0,NE,19.6,32.2,0.02,Rain,Light Rain,50,2012-10-29 12:55:00
9:55 AM,54.7,54.3,99,29.65,1.0,NE,21.9,29.9,0.03,Rain,Light Rain,50,2012-10-29 13:55:00
10:55 AM,55.2,54.7,98,29.61,1.0,NE,19.6,36.8,0.03,Rain,Light Rain,40,2012-10-29 14:55:00
11:55 AM,55.6,54.7,97,29.58,1.5,NE,19.6,49.5,0.01,Rain,Light Rain,50,2012-10-29 15:55:00
12:31 PM,55.4,55.4,100,29.57,0.8,NE,20.7,36.8,N/A,Rain,Light Rain,50,2012-10-29 16:31:00
12:55 PM,55.6,55.2,99,29.54,0.8,NE,29.9,43.7,0.01,Rain,Light Rain,40,2012-10-29 16:55:00
1:55 PM,55.8,55.2,98,29.50,1.0,NE,27.6,44.9,0.01,,Light Drizzle,50,2012-10-29 17:55:00
2:55 PM,55.9,55.0,97,29.45,1.5,NE,27.6,43.7,0.01,,Light Drizzle,50,2012-10-29 18:55:00
3:55 PM,56.1,55.6,98,29.40,1.5,NE,32.2,49.5,0.03,Rain,Light Rain,50,2012-10-29 19:55:00
4:55 PM,56.5,55.9,98,29.40,1.5,NE,27.6,42.6,0.18,Rain,Light Rain,50,2012-10-29 20:55:00
5:55 PM,57.7,57.2,98,29.39,1.5,ENE,28.8,42.6,0.12,Rain,Light Rain,70,2012-10-29 21:55:00
6:55 PM,58.1,57.6,98,29.39,3.0,ENE,27.6,46.0,0.05,Rain,Light Rain,70,2012-10-29 22:55:00
7:55 PM,58.3,57.9,99,29.36,4.0,ENE,31.1,47.2,0.09,Rain,Light Rain,70,2012-10-29 23:55:00
8:55 PM,58.8,58.3,98,29.34,3.0,East,29.9,51.8,0.04,Rain,Light Rain,80,2012-10-30 00:55:00
9:55 PM,58.6,58.3,99,29.34,2.5,ENE,29.9,51.8,0.10,Rain,Rain,70,2012-10-30 01:55:00
10:55 PM,58.8,58.5,99,29.37,4.0,East,25.3,40.3,0.30,Rain,Rain,90,2012-10-30 02:55:00
11:55 PM,59.4,59.2,99,29.38,5.0,East,24.2,32.2,0.01,Rain,Light Rain,100,2012-10-30 03:55:00